TimeEST,TemperatureF,Dew PointF,Humidity,Sea Level PressureIn,VisibilityMPH,Wind Direction,Wind SpeedMPH,Gust SpeedMPH,PrecipitationIn,Events,Conditions,WindDirDegrees,DateUTC
12:53 AM,-4.0,-11.9,69,30.39,10.0,Calm,Calm,-,N/A,,Clear,0,2014-03-04 05:53:00
1:53 AM,-6.0,-13.0,72,30.41,10.0,Calm,Calm,-,N/A,,Clear,0,2014-03-04 06:53:00
2:53 AM,-5.1,-13.0,69,30.40,10.0,Calm,Calm,-,N/A,,Clear,0,2014-03-04 07:53:00
3:53 AM,-9.9,-16.1,74,30.40,10.0,Calm,Calm,-,N/A,,Clear,0,2014-03-04 08:53:00
4:53 AM,-11.0,-16.1,78,30.41,10.0,Calm,Calm,-,N/A,,Clear,0,2014-03-04 09:53:00
5:53 AM,-11.9,-17.0,78,30.41,10.0,Calm,Calm,-,N/A,,Clear,0,2014-03-04 10:53:00
6:53 AM,-11.9,-18.0,74,30.44,10.0,Calm,Calm,-,N/A,,Clear,0,2014-03-04 11:53:00
7:53 AM,-4.0,-11.0,72,30.42,10.0,Calm,Calm,-,N/A,,Clear,0,2014-03-04 12:53:00
8:53 AM,6.1,-2.0,69,30.43,10.0,South,5.8,-,N/A,,Overcast,190,2014-03-04 13:53:00
9:53 AM,7.0,-0.9,70,30.42,10.0,SSE,5.8,-,N/A,,Mostly Cloudy,160,2014-03-04 14:53:00
10:53 AM,12.0,-0.0,59,30.40,10.0,SSE,6.9,-,N/A,,Mostly Cloudy,160,2014-03-04 15:53:00
11:53 AM,14.0,1.0,56,30.38,10.0,South,9.2,-,N/A,,Mostly Cloudy,180,2014-03-04 16:53:00
12:53 PM,17.1,1.0,50,30.35,10.0,South,10.4,-,N/A,,Mostly Cloudy,170,2014-03-04 17:53:00
1:53 PM,19.0,1.0,46,30.33,10.0,SSE,9.2,-,N/A,,Overcast,160,2014-03-04 18:53:00
2:53 PM,19.0,1.9,47,30.32,10.0,SSE,9.2,-,N/A,,Overcast,160,2014-03-04 19:53:00
3:53 PM,19.9,3.9,50,30.33,10.0,SSE,10.4,-,N/A,,Overcast,160,2014-03-04 20:53:00
4:53 PM,19.0,10.0,68,30.32,3.0,South,6.9,-,0.00,Snow,Light Snow,170,2014-03-04 21:53:00
5:53 PM,19.0,12.0,74,30.32,3.0,SSE,5.8,-,0.00,Snow,Light Snow,160,2014-03-04 22:53:00
6:14 PM,18.0,12.0,78,30.28,2.5,SE,3.5,-,0.00,Snow,Light Snow,130,2014-03-04 23:14:00
6:21 PM,18.0,12.0,78,30.27,4.0,SE,4.6,-,0.00,Snow,Light Snow,130,2014-03-04 23:21:00
6:53 PM,17.1,12.0,81,30.33,3.0,Calm,Calm,-,0.00,Snow,Light Snow,0,2014-03-04 23:53:00
7:53 PM,18.0,12.9,81,30.32,3.0,Calm,Calm,-,0.00,Snow,Light Snow,0,2014-03-05 00:53:00
8:00 PM,18.0,12.9,81,30.27,2.0,Calm,Calm,-,0.00,Snow,Light Snow,0,2014-03-05 01:00:00
8:07 PM,18.0,12.9,81,30.28,1.5,Calm,Calm,-,0.00,Snow,Light Snow,0,2014-03-05 01:07:00
8:13 PM,17.1,12.9,84,30.27,3.0,Calm,Calm,-,0.00,Snow,Light Snow,0,2014-03-05 01:13:00
8:53 PM,17.1,14.0,88,30.32,4.0,Calm,Calm,-,0.00,Snow,Light Snow,0,2014-03-05 01:53:00
9:16 PM,17.1,12.9,84,30.28,2.0,SSW,3.5,-,0.00,Snow,Light Snow,200,2014-03-05 02:16:00
9:28 PM,18.0,14.0,84,30.27,3.0,Calm,Calm,-,0.00,Snow,Light Snow,0,2014-03-05 02:28:00
9:53 PM,18.0,12.9,81,30.32,4.0,South,4.6,-,0.00,Snow,Light Snow,190,2014-03-05 02:53:00
10:53 PM,18.0,14.0,84,30.30,6.0,SSW,4.6,-,0.00,Snow,Light Snow,200,2014-03-05 03:53:00
11:53 PM,18.0,12.9,81,30.29,8.0,South,5.8,-,0.00,Snow,Light Snow,180,2014-03-05 04:53:00